STARLINK-31692, 59577

Orbit data source: Space-Track

STARLINK-31692, 59577 is a payload satellite owned by SpaceX/Seattle (US) in LEO that was launched on Tue, 23 Apr 2024 UTC via an FALCON 9 launch vehicle from the Air Force Eastern Test Range (AFETR). Payload-class satellites include a variety of spacecraft equipped with specific instruments for various scientific and technological missions. These include communications satellites like Starlink; space stations such as the ISS; scientific satellites like the Hubble; Earth observation satellites from companies like Planet Labs, Umbra, and HawkEye 360; GPS; miniature CubeSats for education and research; and military/defense satellites.

Loading next visibility...
Identifier
59577, 2024-076P
Orbit
LEO
Country
Flag of USUS
Related business
Manufacturer
SpaceX/Seattle
Mission
Operational Commercial Communications
Bus & Motor
STARLINK V2M, Unknown motor
Mass
730 kg wet, ~700 kg dry
Launch date (UTC)
2024-04-23 (2 years ago)
Launch vehicle
FALCON 9
Launch site
Air Force Eastern Test Range (AFETR)
Object type
Payload
Rocket body
Debris
Shape & HBR
Box + 2 Pan, 17.7 m
Radar Cross Section
33.884 m², Large (>1 m²)

Expand to show TLE details & history
Last TLE update: 8 hours ago

TLE from 8 hours ago
0 STARLINK-31692
1 59577U 24076P   25306.46137171  .00003835  00000-0  14889-3 0  9990
2 59577  43.0026   7.5833 0001668 273.3366  86.7295 15.27560921 87041
Epoch: 2025-11-02T11:04Z
TLE epoch observation values (Epoch: 2025-11-02T11:04:22.515Z)
Latitude
-0.00002°
Longitude
159.5127°
Altitude
482.817 km
Speed
7.626 km/s
True Right ascension
00h 30m 19s
True Declination
0° 00' 00"
Sunlit
Object was in full shadow at epoch
Visualization orbit readout
Latitude
Unknown
Longitude
Unknown
Altitude
Unknown
Speed
Unknown
Apparent Right ascension
Unknown
Apparent Declination
Unknown
Sunlit
N/A
Visualization observer readout
Local Sidereal Time
15:19:38
Azimuth
Unknown
Elevation
Unknown
Doppler factor
Unknown
Orbital elements
Apogee altitude
486.196 km
Perigee altitude
483.906 km
Semi-major axis
6,863.188 km
Eccentricity
0.00017
Inclination
43.0026°
RAAN
7.5833°
Arg. of periapsis
273.3366°
True anomaly
86.74858°
Mean anomaly
86.7295°
Eccentric anomaly
86.73904°
Mean motion
3.81728 °/min
Orbital period
94.31 mins
BSTAR
0.00014889
Loading maneuver chart data...
Computing Atmospheric mass density...
Loading historical data...
Loading historical data...
Loading historical data...
Loading historical data...
Loading historical data...
Loading historical data...
Loading historical data...

Documentation

Showing up to 5 results
|